YMHB

Hobart International Airport

Airport
ICAO code
YMHB
IATA Code
HBA
Summary
ICAO Region
APAC
ICAO Territory
Location

Cambridge, Tasmania

Serving
Hobart
Elevation
13 ft
Coordinates
42° 50' 13" S , 147° 30' 20" E
KCC
Metar
YMHB 191030Z 32006KT CAVOK 08/07 Q1026

Hobart International Airport is an airport located in Cambridge, 17 kilometres east of Hobart, Tasmania.

Climatology

Mild temperate oceanic climate (Köppen climate classification Cfb).

Airport map

Aerial View

Airport accidents

SKYbrary Partners:

Safety knowledge contributed by: